Location: Mason Neck State Park
(38.6428°N, 77.1981°W)
Time: 20:46:22
(UTC-04:00)

Cosmos 2278 Rocket - Visible Passes

Search period start: 30 June 2016 00:00
Search period end: 10 July 2016 00:00
Orbit: 839 x 847 km, 71.0° (Epoch: 30 June)

Date Brightness Start Highest point End Pass type
(mag) Time Alt. Az. Time Alt. Az. Time Alt. Az.
30 Jun 3.3 02:50:51 29° SE 02:52:31 35° ESE 02:57:38 10° NE visible
30 Jun 3.3 04:32:42 15° WSW 04:36:35 31° WNW 04:41:37 10° N visible
01 Jul 3.2 02:36:48 31° SE 02:38:01 34° ESE 02:43:04 10° NE visible
01 Jul 3.2 04:18:39 18° WSW 04:22:02 32° WNW 04:27:07 10° N visible
02 Jul 3.3 02:22:42 31° ESE 02:23:30 32° ESE 02:28:29 10° NE visible
02 Jul 3.2 04:04:33 21° WSW 04:07:29 34° WNW 04:12:38 10° N visible
03 Jul 3.3 02:08:35 30° ESE 02:08:59 31° ESE 02:13:54 10° NE visible
03 Jul 3.1 03:50:26 24° WSW 03:52:56 35° WNW 03:58:08 10° N visible
04 Jul 3.4 01:54:26 29° ESE 01:54:28 29° ESE 01:59:19 10° NE visible
04 Jul 3.1 03:36:16 28° WSW 03:38:23 37° WNW 03:43:37 10° N visible
05 Jul 3.5 01:40:14 28° E 01:40:14 28° E 01:44:43 10° NE visible
05 Jul 3.0 03:22:05 31° W 03:23:50 38° WNW 03:29:07 10° N visible
06 Jul 3.6 01:26:01 26° E 01:26:01 26° E 01:30:07 10° NE visible
06 Jul 3.0 03:07:51 34° W 03:09:17 40° WNW 03:14:37 10° N visible
07 Jul 3.7 01:11:46 25° E 01:11:46 25° E 01:15:32 10° NE visible
07 Jul 2.9 02:53:36 37° W 02:54:44 42° WNW 03:00:07 10° N visible
08 Jul 3.8 00:57:29 23° E 00:57:29 23° E 01:00:55 10° NE visible
08 Jul 2.8 02:39:19 40° W 02:40:11 43° WNW 02:45:37 10° N visible
09 Jul 3.8 00:43:10 22° E 00:43:10 22° E 00:46:18 10° NE visible
09 Jul 2.8 02:25:00 43° W 02:25:38 45° WNW 02:31:06 10° N visible
